Waarnemingen

Advertentie
Mijn weer
Brindisi, Italië (16320): temperatuur & dauwpunt: 19.09.2018 11:00:00 - 25.09.2018 11:00:00 (CEST)Brindisi, Italië (16320): windsnelheid: 19.09.2018 11:00:00 - 25.09.2018 11:00:00 (CEST)Brindisi, Italië (16320): windrichting: 19.09.2018 11:00:00 - 25.09.2018 11:00:00 (CEST)Brindisi, Italië (16320): luchtdruk: 19.09.2018 11:00:00 - 25.09.2018 11:00:00 (CEST)Brindisi, Italië (16320): zicht: 19.09.2018 11:00:00 - 25.09.2018 11:00:00 (CEST)Brindisi, Italië (16320): neerslag: 19.09.2018 11:00:00 - 25.09.2018 11:00:00 (CEST)
Datum & Tijd tt [°C] td [°C] ff [km/u] ff [kn] dd ppp [hPa] vv [km] rr [mm]
25.09.2018 11:00:00 19,9 9,3 29 16 NNO 1024,2 10 0,0
25.09.2018 10:00:00 20,0 9,0 35 19 N - 10 -
25.09.2018 09:00:00 20,0 11,0 37 20 NNO - 10 -
25.09.2018 08:00:00 19,4 10,8 39 21 NNO 1022,3 20 -
25.09.2018 07:00:00 20,0 12,0 35 19 NNO - 10 -
25.09.2018 06:00:00 20,0 13,0 34 18 NNO - 10 -
25.09.2018 05:00:00 20,6 10,3 31 17 NNW 1020,6 10 0,0
25.09.2018 04:00:00 21,0 12,0 37 20 N - 10 -
25.09.2018 03:00:00 22,0 15,0 37 20 N - 10 -
25.09.2018 02:00:00 21,8 16,0 34 18 N 1019,6 10 -
25.09.2018 01:00:00 22,0 16,0 37 20 NNO - 10 -
25.09.2018 00:00:00 22,0 18,0 35 19 NNO - 9 -
24.09.2018 23:00:00 22,4 19,6 16 9 N 1017,2 10 0,0
24.09.2018 22:00:00 25,0 21,0 15 8 N - 10 -
24.09.2018 21:00:00 25,0 19,0 15 8 NNW - 10 -
24.09.2018 20:00:00 25,7 19,6 15 8 N 1014,9 10 -
24.09.2018 19:00:00 26,0 19,0 5 3 NNO - 10 -
24.09.2018 18:00:00 27,0 20,0 9 5 OZO - 10 -
24.09.2018 17:00:00 26,9 20,4 11 6 O 1013,5 10 0,0
24.09.2018 16:00:00 27,0 21,0 15 8 O - 10 -
24.09.2018 15:00:00 28,0 22,0 16 9 O - 10 -
24.09.2018 14:00:00 28,1 21,2 18 10 O 1013,6 10 -
24.09.2018 13:00:00 29,0 18,0 15 8 NO - 10 -
24.09.2018 12:00:00 29,0 17,0 8 4 WZW - 10 -
24.09.2018 11:00:00 28,1 17,7 16 9 ZZW 1014,4 10 0,0
24.09.2018 10:00:00 26,0 19,0 18 10 Z - 10 -
24.09.2018 09:00:00 24,0 21,0 9 5 ZZW - 10 -
24.09.2018 08:00:00 22,8 21,0 5 3 ZZW 1014,3 25 -
24.09.2018 07:00:00 22,0 21,0 9 5 Z - 8 -
24.09.2018 06:00:00 22,0 21,0 13 7 ZZO - 10 -
24.09.2018 05:00:00 21,9 20,6 13 7 ZZO 1014,0 10 0,0
24.09.2018 04:00:00 22,0 21,0 11 6 Z - 10 -
24.09.2018 03:00:00 23,0 21,0 15 8 Z - 10 -
24.09.2018 02:00:00 23,1 20,8 16 9 ZZW 1016,0 10 -
24.09.2018 01:00:00 24,0 21,0 16 9 ZZW - 10 -
24.09.2018 00:00:00 24,0 21,0 18 10 ZZW - 10 -
23.09.2018 23:00:00 23,8 20,4 18 10 ZZW 1017,3 10 0,0
23.09.2018 22:00:00 24,0 20,0 15 8 ZZW - 10 -
23.09.2018 21:00:00 25,0 19,0 11 6 Z - 10 -
23.09.2018 20:00:00 25,2 17,7 11 6 ZO 1017,8 10 -
23.09.2018 19:00:00 26,0 20,0 13 7 ZO - 10 -
23.09.2018 18:00:00 26,0 20,0 15 8 OZO - 10 -
23.09.2018 17:00:00 26,9 19,9 15 8 O 1018,0 10 0,0
23.09.2018 16:00:00 27,0 20,0 18 10 O - 10 -
23.09.2018 15:00:00 27,0 20,0 18 10 O - 10 -
23.09.2018 14:00:00 27,6 19,4 16 9 O 1019,1 10 -
23.09.2018 13:00:00 27,0 19,0 18 10 O - 10 -
23.09.2018 12:00:00 27,0 20,0 16 9 O - 10 -
23.09.2018 11:00:00 26,6 21,0 11 6 ONO 1020,1 10 0,0
23.09.2018 10:00:00 26,0 19,0 5 3 Z - 10 -
23.09.2018 09:00:00 23,0 20,0 8 4 ZW - 10 -
23.09.2018 08:00:00 21,2 19,6 5 3 ZW 1019,2 10 -
23.09.2018 07:00:00 20,0 19,0 9 5 ZZW - 10 -
23.09.2018 06:00:00 - - - - - - - -
23.09.2018 05:00:00 19,7 18,2 5 3 ZW 1018,5 10 0,0
23.09.2018 04:00:00 21,0 19,0 5 3 ZZW - 10 -
23.09.2018 03:00:00 - - - - - - - -
23.09.2018 02:00:00 21,1 18,6 5 3 ZW 1019,1 10 -
23.09.2018 01:00:00 22,0 19,0 5 3 ZZW - 10 -
23.09.2018 00:00:00 22,0 19,0 11 6 ZW - 10 -
22.09.2018 23:00:00 22,6 19,3 11 6 ZW 1018,7 10 0,0
22.09.2018 22:00:00 24,0 19,0 8 4 ZW - 10 -
22.09.2018 21:00:00 25,0 17,0 8 4 Z - 10 -
22.09.2018 20:00:00 24,8 18,1 5 3 ZO 1018,0 10 -
22.09.2018 19:00:00 26,0 18,0 11 6 ZO - 10 -
22.09.2018 18:00:00 26,0 19,0 11 6 O - 10 -
22.09.2018 17:00:00 26,4 19,7 15 8 ONO 1017,1 10 0,0
22.09.2018 16:00:00 27,0 19,0 18 10 ONO - 10 -
22.09.2018 15:00:00 27,0 19,0 16 9 ONO - 10 -
22.09.2018 14:00:00 26,3 19,1 16 9 ONO 1017,8 10 -
22.09.2018 13:00:00 26,0 20,0 15 8 ONO - 10 -
22.09.2018 12:00:00 26,0 20,0 13 7 NO - 10 -
22.09.2018 11:00:00 25,8 20,3 11 6 ONO 1018,0 10 0,0
22.09.2018 10:00:00 25,0 20,0 4 2 - - 10 -
22.09.2018 09:00:00 23,0 20,0 4 2 - - 10 -
22.09.2018 08:00:00 20,8 19,0 8 4 ZW 1017,2 10 -
22.09.2018 07:00:00 19,0 18,0 5 3 WZW - 6 -
22.09.2018 06:00:00 19,0 18,0 4 2 WZW - 10 -
22.09.2018 05:00:00 19,6 18,1 8 4 W 1016,5 10 0,0
22.09.2018 04:00:00 20,0 19,0 8 4 ZW - 10 -
22.09.2018 03:00:00 20,0 19,0 5 3 ZW - 10 -
22.09.2018 02:00:00 20,5 18,2 5 3 WZW 1016,8 10 -
22.09.2018 01:00:00 21,0 18,0 4 2 WZW - 10 -
22.09.2018 00:00:00 22,0 18,0 2 1 ZW - 10 -
21.09.2018 23:00:00 22,7 19,2 4 2 Z 1016,6 10 0,0
21.09.2018 22:00:00 22,0 19,0 8 4 ZW - 10 -
21.09.2018 21:00:00 24,0 19,0 2 1 - - 10 -
21.09.2018 20:00:00 23,9 19,2 4 2 WNW 1016,0 10 -
21.09.2018 19:00:00 24,0 19,0 8 4 WNW - 10 -
21.09.2018 18:00:00 25,0 20,0 2 1 - - 10 -
21.09.2018 17:00:00 25,4 19,7 8 4 ZO 1015,9 10 0,0
21.09.2018 16:00:00 27,0 19,0 18 10 O - 8 -
21.09.2018 15:00:00 27,0 20,0 15 8 ONO - 10 -
21.09.2018 14:00:00 26,5 19,9 15 8 NO 1016,3 10 -
21.09.2018 13:00:00 26,0 20,0 11 6 NO - 10 -
21.09.2018 12:00:00 26,0 20,0 11 6 NO - 10 -
21.09.2018 11:00:00 25,9 20,2 9 5 NO 1016,9 10 0,0
21.09.2018 10:00:00 26,0 20,0 11 6 NNO - 10 -
21.09.2018 09:00:00 25,0 20,0 11 6 N - 10 -
21.09.2018 08:00:00 24,5 20,5 9 5 N 1016,0 10 -
21.09.2018 07:00:00 21,0 20,0 5 3 W - 10 -
21.09.2018 06:00:00 22,0 20,0 9 5 W - 10 -
21.09.2018 05:00:00 21,6 19,5 8 4 W 1015,7 10 0,0
21.09.2018 04:00:00 22,0 20,0 8 4 W - 10 -
21.09.2018 03:00:00 24,0 20,0 9 5 NNW - 10 -
21.09.2018 02:00:00 24,0 20,2 8 4 NNW 1016,3 20 -
21.09.2018 01:00:00 24,0 20,0 9 5 N - 10 -
21.09.2018 00:00:00 24,0 20,0 13 7 NNW - 10 -
20.09.2018 23:00:00 24,3 20,4 15 8 NNW 1016,7 10 0,0
20.09.2018 22:00:00 24,0 20,0 15 8 NNW - 10 -
20.09.2018 21:00:00 24,0 20,0 13 7 NW - 10 -
20.09.2018 20:00:00 24,6 20,2 15 8 NW 1016,4 10 -
20.09.2018 19:00:00 25,0 20,0 13 7 NW - 10 -
20.09.2018 18:00:00 26,0 20,0 13 7 NNW - 10 -
20.09.2018 17:00:00 26,0 20,1 15 8 N 1016,2 10 0,0
20.09.2018 16:00:00 26,0 19,0 16 9 N - 10 -
20.09.2018 15:00:00 27,0 21,0 18 10 N - 10 -
20.09.2018 14:00:00 26,5 19,3 18 10 N 1017,4 10 -
20.09.2018 13:00:00 26,0 20,0 16 9 N - 10 -
20.09.2018 12:00:00 26,0 21,0 15 8 N - 10 -
20.09.2018 11:00:00 26,4 20,5 15 8 N 1018,6 10 0,0
20.09.2018 10:00:00 - - - - - - - -
20.09.2018 09:00:00 26,0 20,0 13 7 N - 10 -
20.09.2018 08:00:00 24,7 20,2 11 6 N 1017,8 10 -
20.09.2018 07:00:00 24,0 21,0 13 7 N - 10 -
20.09.2018 06:00:00 24,0 21,0 13 7 N - 10 -
20.09.2018 05:00:00 24,2 20,8 4 2 - 1017,4 10 0,0
20.09.2018 04:00:00 22,0 19,0 5 3 NW - 10 -
20.09.2018 03:00:00 21,0 18,0 8 4 WNW - 10 -
20.09.2018 02:00:00 22,0 18,8 9 5 W 1018,2 10 -
20.09.2018 01:00:00 23,0 19,0 4 2 - - 10 -
20.09.2018 00:00:00 24,0 20,0 9 5 NO - 10 -
19.09.2018 23:00:00 23,8 18,9 9 5 ONO 1018,4 10 0,0
19.09.2018 22:00:00 24,0 18,0 5 3 N - 10 -
19.09.2018 21:00:00 25,0 18,0 4 2 NW - 10 -
19.09.2018 20:00:00 25,3 18,0 2 1 - 1018,3 10 -
19.09.2018 19:00:00 25,0 18,0 4 2 NO - 10 -
19.09.2018 18:00:00 26,0 17,0 8 4 O - 10 -
19.09.2018 17:00:00 26,2 17,6 13 7 ONO 1017,4 10 0,0
19.09.2018 16:00:00 27,0 17,0 18 10 ONO - 10 -
19.09.2018 15:00:00 27,0 19,0 18 10 ONO - 10 -
19.09.2018 14:00:00 26,5 18,6 16 9 ONO 1018,3 10 -
19.09.2018 13:00:00 26,0 20,0 16 9 ONO - 10 -
19.09.2018 12:00:00 26,0 21,0 16 9 ONO - 10 -
19.09.2018 11:00:00 25,7 20,6 11 6 ONO 1019,5 10 0,0

tt = temperatuur
td = dauwpunt
ff = windsnelheid
dd = windrichting
ppp = luchtdruk
vv = zicht
rr = neerslag

Weerstations in de omgeving